TimeMDT,TemperatureF,Dew PointF,Humidity,Sea Level PressureIn,VisibilityMPH,Wind Direction,Wind SpeedMPH,Gust SpeedMPH,PrecipitationIn,Events,Conditions,WindDirDegrees,DateUTC
12:53 AM,71.1,46.9,42,29.78,10.0,NW,13.8,18.4,0.00,Rain,Light Rain,310,2013-07-12 06:53:00
1:53 AM,66.9,53.1,61,29.79,10.0,NW,9.2,-,0.01,,Overcast,320,2013-07-12 07:53:00
2:53 AM,66.9,52.0,59,29.78,10.0,NNW,6.9,-,0.00,,Overcast,330,2013-07-12 08:53:00
3:53 AM,66.0,54.0,65,29.80,10.0,ESE,6.9,-,0.00,Rain,Light Rain,110,2013-07-12 09:53:00
4:53 AM,64.0,55.0,73,29.81,10.0,SE,3.5,-,0.00,,Overcast,140,2013-07-12 10:53:00
5:53 AM,64.0,55.0,73,29.81,10.0,Calm,Calm,-,N/A,,Overcast,0,2013-07-12 11:53:00
6:53 AM,66.0,55.0,68,29.81,10.0,Calm,Calm,-,N/A,,Overcast,0,2013-07-12 12:53:00
7:53 AM,68.0,51.1,55,29.84,10.0,ENE,3.5,-,N/A,,Overcast,60,2013-07-12 13:53:00
8:53 AM,71.1,52.0,51,29.86,10.0,WNW,4.6,-,N/A,,Partly Cloudy,290,2013-07-12 14:53:00
9:53 AM,73.9,45.0,35,29.85,10.0,North,3.5,-,N/A,,Mostly Cloudy,350,2013-07-12 15:53:00
10:53 AM,73.0,48.9,42,29.86,10.0,South,6.9,-,N/A,,Overcast,190,2013-07-12 16:53:00
11:53 AM,73.9,46.9,38,29.87,10.0,SSW,8.1,-,N/A,,Overcast,210,2013-07-12 17:53:00
12:53 PM,75.9,46.9,36,29.86,10.0,Calm,Calm,-,N/A,,Scattered Clouds,0,2013-07-12 18:53:00
1:53 PM,79.0,46.9,32,29.86,10.0,Variable,6.9,-,N/A,,Partly Cloudy,0,2013-07-12 19:53:00
2:53 PM,81.0,46.0,29,29.85,10.0,SSE,11.5,20.7,N/A,,Clear,150,2013-07-12 20:53:00
3:53 PM,81.0,41.0,24,29.83,10.0,South,8.1,-,N/A,,Partly Cloudy,180,2013-07-12 21:53:00
4:53 PM,82.0,39.0,22,29.82,10.0,ESE,6.9,-,N/A,,Overcast,110,2013-07-12 22:53:00
5:53 PM,82.9,39.9,22,29.80,10.0,WSW,4.6,-,N/A,,Clear,250,2013-07-12 23:53:00
6:53 PM,82.9,41.0,23,29.80,10.0,SSE,5.8,-,N/A,,Clear,160,2013-07-13 00:53:00
7:53 PM,82.0,37.9,21,29.80,10.0,South,4.6,-,N/A,,Clear,170,2013-07-13 01:53:00
8:53 PM,78.1,39.9,25,29.81,10.0,Calm,Calm,-,N/A,,Clear,0,2013-07-13 02:53:00
9:53 PM,75.9,39.0,26,29.82,10.0,South,4.6,-,N/A,,Clear,170,2013-07-13 03:53:00
10:53 PM,71.1,39.9,32,29.85,10.0,SW,8.1,-,N/A,,Clear,230,2013-07-13 04:53:00
11:53 PM,71.1,35.1,27,29.85,10.0,WNW,11.5,-,N/A,,Clear,290,2013-07-13 05:53:00